[[{"header":{"parameterUnit":"m.s-1","parameterCategory":1,"la1":30.2991,"la2":30.254,"lo1":-89.0895,"lo2":-89.0444,"dy":0.0017,"dx":0.0017,"nx":28,"ny":28,"refTime":"2025-02-08T09:00:00:Z","depth":0,"parameterNumber":2,"parameterNumberName":"U-component_of_WINDS"},"data":[0,0,0,0,0,0,0,0,0,0,0,0,0,0,0,0,0,0,0,0,0,0,0,0,0,0,0,0,0,0,0,0,0,0,0,0,0,0,0,0,0,0,0,0,0,0,0,0,0,0,0,0,0,0,0,0,0,0,0.1577,0.1577,0,0.158,0.158,0.158,0.1553,0.1553,0.1552,0.1551,0.1556,0.1557,0.1558,0,0,0,0,0,0,0,0,0,0,0,0,0,0.1551,0.1551,0.1577,0.1577,0.1577,0.158,0.158,0.158,0.1553,0.1553,0.1552,0.1551,0.1556,0.1557,0.1558,0,0,0,0,0,0,0,0,0,0,0,0,0,0.1559,0.1551,0.1577,0.1564,0.1563,0.158,0.158,0.158,0.1554,0.1552,0.1551,0.155,0.1556,0.1557,0.1558,0.1589,0,0,0.1562,0.1563,0,0,0,0,0,0,0,0,0.1558,0.156,0.1566,0.1565,0.1564,0.1565,0.1573,0.1583,0.1554,0.1557,0.1551,0.155,0.156,0.1561,0.1564,0.1589,0.1589,0.1562,0.1563,0.1564,0.1564,0,0,0,0,0,0,0,0.1558,0.1559,0.1578,0.1566,0.1565,0.1559,0.1559,0.1574,0.1565,0.1557,0.1555,0.1556,0.156,0.1563,0.1564,0.1589,0.1562,0.1563,0.1564,0.1565,0.164,0.1641,0,0,0,0,0,0,0.1559,0.1559,0.1578,0.1578,0.1558,0.156,0.156,0.1566,0.1565,0.1564,0.1556,0.1554,0.1562,0.1563,0.1564,0.1601,0.1564,0.1565,0.1565,0.1639,0.1641,0.1642,0,0,0,0,0,0,0.1558,0.1561,0.1578,0.1568,0.157,0.1562,0.1568,0.1566,0.157,0.1565,0.1563,0.1562,0.1561,0.1563,0.1583,0.1601,0.1565,0.1566,0.1638,0.164,0.1641,0.1674,0,0,0,0,0,0,0.1558,0.1561,0.1571,0.1569,0.1571,0.1596,0.1569,0.1567,0.1572,0.1569,0.1569,0.1568,0.156,0.1581,0.1584,0.1602,0.1567,0.1636,0.1638,0.1641,0.1671,0.1676,0.1681,0,0,0,0,0,0.1557,0.158,0.1572,0.1574,0.1584,0.1597,0.1598,0.1588,0.1573,0.1585,0.1581,0.1568,0.1598,0.1583,0.1587,0.1605,0.1635,0.1638,0.164,0.1669,0.1675,0.1681,0,0,0,0,0,0,0.1586,0.158,0.157,0.1594,0.1596,0.1592,0.1606,0.1595,0.1602,0.1599,0.1586,0.1587,0.161,0.1609,0.1593,0.1635,0.1614,0.1618,0.1634,0.1641,0.1646,0.1646,0.1568,0,0,0,0,0,0.1595,0.1605,0.16,0.1621,0.1622,0.1614,0.1619,0.1611,0.1613,0.1614,0.1613,0.1616,0.1626,0.1633,0.1642,0.167,0.1671,0.1685,0.169,0.1694,0.1697,0.1714,0.172,0.1651,0.1651,0.1651,0,0,0.1614,0.1612,0.1619,0.1627,0.1627,0.164,0.1615,0.1629,0.1638,0.1617,0.1636,0.1635,0.1638,0.1663,0.1673,0.1663,0.1716,0.1697,0.1701,0.1702,0.1717,0.1724,0.173,0.1653,0.1653,0.1652,0,0,0.1655,0.1654,0.1672,0.1673,0.1675,0.1669,0.1674,0.1672,0.167,0.1689,0.1674,0.1685,0.1703,0.1706,0.171,0.1753,0.1741,0.1756,0.1783,0.1799,0.1804,0.1809,0.1826,0.1832,0.1759,0.176,0.176,0,0.1678,0.1695,0.1683,0.1698,0.1702,0.1683,0.1702,0.1704,0.1709,0.1713,0.1701,0.1723,0.1724,0.175,0.176,0.1764,0.1769,0.1756,0.1804,0.1809,0.1813,0.1829,0.1836,0.1761,0.1761,0.1761,0.1761,0,0.1725,0.1737,0.1752,0.1756,0.1762,0.1779,0.177,0.1778,0.177,0.1766,0.1786,0.1786,0.1796,0.1801,0.1793,0.1826,0.182,0.1806,0.1785,0.1822,0.1837,0.1843,0.1764,0.1763,0.1763,0.1762,0,0,0.1784,0.1782,0.1788,0.1791,0.1791,0.1801,0.1817,0.1826,0.1833,0.1837,0.1852,0.1868,0.1855,0.186,0.1852,0.1866,0.1902,0.1851,0.1851,0.1862,0.1941,0.1952,0.1959,0.1894,0.1895,0.1896,0.1941,0,0.1825,0.1853,0.1843,0.1871,0.1883,0.1866,0.188,0.1883,0.188,0.1891,0.1887,0.1899,0.1881,0.1884,0.1897,0.1895,0.1918,0.1891,0.1909,0.191,0.191,0.1967,0.1978,0.202,0.1947,0.1948,0.1948,0,0.1876,0.1883,0.1913,0.1912,0.1917,0.193,0.1938,0.1947,0.1951,0.1948,0.1953,0.1943,0.196,0.1939,0.1963,0.1946,0.1952,0.1952,0.1954,0.1956,0.1932,0.1971,0.2033,0.204,0.1957,0.1956,0.1956,0,0.1918,0.1934,0.1954,0.1957,0.1956,0.1967,0.1967,0.1969,0.1975,0.1982,0.1987,0.1996,0.2001,0.2009,0.2002,0.1987,0.2029,0.2006,0.2028,0.2028,0.2038,0.2038,0.2103,0.204,0.204,0.204,0.204,0,0.1966,0.1985,0.1973,0.1986,0.2007,0.1996,0.2018,0.2017,0.2019,0.2032,0.2017,0.203,0.2019,0.2031,0.2026,0.2048,0.205,0.2049,0.2048,0.2051,0.2051,0.2056,0.2053,0.2042,0.2042,0.2041,0.2041,0,0.2016,0.2009,0.203,0.2028,0.2028,0.2045,0.2043,0.2056,0.2052,0.2069,0.2072,0.2066,0.208,0.2073,0.2087,0.2084,0.2113,0.2107,0.2112,0.2111,0.2133,0.2132,0.2205,0.2215,0.2145,0.2145,0.2146,0,0.2047,0.2062,0.2062,0.2069,0.2071,0.2083,0.2089,0.2079,0.2086,0.2091,0.2104,0.2116,0.2125,0.2148,0.2146,0.2157,0.2152,0.2177,0.2153,0.2157,0.2154,0.2153,0.2155,0.2182,0.2182,0.2183,0.2184,0,0.2104,0.21,0.2109,0.2118,0.2126,0.2132,0.2137,0.2145,0.2135,0.2144,0.2157,0.2165,0.2179,0.2192,0.2202,0.2204,0.2193,0.2191,0.2197,0.2201,0.2204,0.2204,0.2126,0.2189,0.2189,0.2188,0.2188,0.2188,0.2146,0.2159,0.2161,0.2173,0.2175,0.2181,0.2193,0.2191,0.2201,0.2212,0.2206,0.2222,0.2226,0.2238,0.2242,0.2255,0.2245,0.2253,0.2256,0.2258,0.2262,0.2201,0.2257,0.2257,0.2256,0.2256,0.2256,0,0.2203,0.2203,0.2214,0.2222,0.2232,0.2219,0.2225,0.2234,0.2248,0.2253,0.2262,0.2279,0.2291,0.2291,0.2303,0.2314,0.2309,0.2317,0.2317,0.2318,0.2269,0.2263,0.2321,0.2321,0.2321,0.2321,0.2321,0.2321,0.2233,0.2255,0.2251,0.2274,0.2275,0.229,0.2295,0.23,0.2304,0.2323,0.2333,0.2332,0.2335,0.2347,0.2359,0.2358,0.2364,0.2375,0.2373,0.2327,0.2321,0.2315,0.231,0.2376,0.2376,0.242,0.2421,0.2421]},{"header":{"parameterUnit":"m.s-1","parameterCategory":1,"la1":30.2991,"la2":30.254,"lo1":-89.0895,"lo2":-89.0444,"dy":0.0017,"dx":0.0017,"nx":28,"ny":28,"refTime":"2025-02-08T09:00:00:Z","depth":0,"parameterNumber":3,"parameterNumberName":"V-component_of_WINDS"},"data":[0,0,0,0,0,0,0,0,0,0,0,0,0,0,0,0,0,0,0,0,0,0,0,0,0,0,0,0,0,0,0,0,0,0,0,0,0,0,0,0,0,0,0,0,0,0,0,0,0,0,0,0,0,0,0,0,0,0,3.173,3.1732,0,3.1883,3.1885,3.1887,3.1931,3.193,3.1929,3.1928,3.2088,3.2092,3.2097,0,0,0,0,0,0,0,0,0,0,0,0,0,3.1478,3.1483,3.173,3.1732,3.1734,3.1883,3.1885,3.1887,3.1931,3.193,3.1929,3.1928,3.2086,3.2092,3.2098,0,0,0,0,0,0,0,0,0,0,0,0,0,3.1605,3.1484,3.1729,3.1773,3.1779,3.1883,3.1885,3.1888,3.1931,3.193,3.1929,3.1928,3.2084,3.2091,3.2099,3.217,0,0,3.2122,3.2125,0,0,0,0,0,0,0,0,3.1598,3.1614,3.1765,3.1771,3.1777,3.1887,3.1855,3.1983,3.1932,3.1873,3.1928,3.1927,3.2022,3.2034,3.2066,3.2178,3.2184,3.2122,3.2127,3.213,3.2132,0,0,0,0,0,0,0,3.1589,3.1608,3.1791,3.1767,3.1774,3.1787,3.1803,3.1879,3.1953,3.1878,3.1882,3.1899,3.2025,3.2059,3.207,3.2187,3.2122,3.2129,3.2133,3.2136,3.2368,3.237,0,0,0,0,0,0,3.1572,3.16,3.1786,3.1795,3.1682,3.1792,3.1811,3.1853,3.1952,3.1966,3.19,3.1901,3.2046,3.2061,3.2076,3.2169,3.213,3.2137,3.2141,3.2367,3.2369,3.2371,0,0,0,0,0,0,3.1567,3.1588,3.178,3.1699,3.1724,3.1798,3.1845,3.1856,3.189,3.1969,3.1982,3.1921,3.2046,3.2065,3.2147,3.2175,3.214,3.2147,3.2365,3.2367,3.237,3.2353,0,0,0,0,0,0,3.1559,3.1586,3.1613,3.1699,3.1728,3.1847,3.1846,3.186,3.1903,3.1905,3.1992,3.2005,3.2046,3.2136,3.2155,3.2185,3.2153,3.2363,3.2366,3.2369,3.2352,3.2355,3.2358,0,0,0,0,0,3.155,3.1602,3.1614,3.1636,3.1763,3.1849,3.1865,3.1911,3.1905,3.1934,3.1984,3.2002,3.2168,3.2144,3.2165,3.2198,3.2361,3.2365,3.2369,3.235,3.2354,3.2358,0,0,0,0,0,0,3.1518,3.1614,3.1629,3.171,3.1771,3.1856,3.1893,3.1914,3.1978,3.1978,3.2032,3.2052,3.213,3.2172,3.2143,3.2274,3.2265,3.2274,3.2244,3.2248,3.2251,3.224,3.2159,0,0,0,0,0,3.152,3.158,3.1661,3.1725,3.1755,3.1819,3.1857,3.1888,3.1953,3.198,3.2036,3.21,3.2167,3.221,3.2275,3.2357,3.2379,3.2391,3.2394,3.2396,3.2403,3.2452,3.246,3.2383,3.2383,3.2383,0,0,3.1525,3.1585,3.162,3.172,3.1771,3.1834,3.184,3.1905,3.1953,3.199,3.2071,3.2115,3.219,3.2273,3.2312,3.231,3.2429,3.24,3.2401,3.2408,3.2457,3.2464,3.2471,3.2385,3.2385,3.2384,0,0,3.1567,3.1618,3.1678,3.1729,3.1806,3.1848,3.1862,3.1945,3.1976,3.2058,3.2088,3.2145,3.2258,3.2312,3.2353,3.2418,3.2438,3.2437,3.2453,3.2501,3.2507,3.2513,3.2538,3.2546,3.2444,3.2444,3.2444,0,3.1565,3.1659,3.1706,3.1771,3.1815,3.1851,3.1914,3.1961,3.2055,3.2086,3.2082,3.2227,3.2279,3.2377,3.2392,3.2424,3.2444,3.2428,3.2502,3.2508,3.2515,3.2539,3.2549,3.2443,3.2443,3.2443,3.2443,0,3.1653,3.1719,3.1758,3.1849,3.1897,3.196,3.2019,3.2063,3.2089,3.2132,3.2217,3.2282,3.2362,3.2387,3.2413,3.2489,3.2486,3.2491,3.2484,3.2521,3.2545,3.2555,3.2443,3.2443,3.2443,3.2443,0,0,3.1679,3.1796,3.181,3.1853,3.1941,3.1993,3.2059,3.2138,3.2175,3.2239,3.2298,3.2393,3.24,3.2447,3.2479,3.2521,3.2571,3.2522,3.2525,3.2531,3.2662,3.2659,3.2669,3.2584,3.2586,3.2588,3.2657,0,3.1735,3.1853,3.1898,3.1995,3.2058,3.2094,3.2151,3.2212,3.2255,3.2315,3.2362,3.243,3.2432,3.2461,3.2504,3.2556,3.2599,3.2551,3.2641,3.2643,3.2623,3.2681,3.2678,3.274,3.2666,3.2668,3.2669,0,3.1815,3.188,3.1984,3.2067,3.2095,3.2145,3.2223,3.2279,3.235,3.2378,3.2432,3.2462,3.2534,3.2521,3.2623,3.259,3.2629,3.266,3.2664,3.2675,3.266,3.2697,3.276,3.277,3.2684,3.2683,3.2682,0,3.1827,3.1941,3.2018,3.2053,3.2151,3.2187,3.2229,3.2299,3.2344,3.2411,3.2442,3.2516,3.2558,3.2616,3.2667,3.2652,3.2764,3.2755,3.2792,3.279,3.2815,3.2813,3.2888,3.2836,3.2836,3.2836,3.2836,0,3.1885,3.1948,3.2025,3.2073,3.2145,3.2197,3.2267,3.2312,3.2374,3.2433,3.2467,3.2522,3.2584,3.2647,3.2687,3.2766,3.2784,3.281,3.2821,3.2809,3.2805,3.2836,3.2834,3.2838,3.2838,3.2837,3.2837,0,3.1911,3.1965,3.2053,3.2138,3.2161,3.2211,3.2285,3.2334,3.2378,3.2452,3.2472,3.2542,3.2618,3.2674,3.2771,3.2798,3.2884,3.2893,3.286,3.2866,3.2901,3.2898,3.3,3.3017,3.2951,3.2952,3.2952,0,3.1946,3.1995,3.2086,3.2128,3.217,3.2236,3.2283,3.2336,3.2384,3.2469,3.2508,3.2587,3.2652,3.2772,3.2833,3.2908,3.2921,3.2952,3.2933,3.292,3.2925,3.2922,3.2929,3.2955,3.2955,3.2956,3.2956,0,3.2002,3.2027,3.2093,3.2168,3.2223,3.2285,3.2348,3.238,3.2445,3.2497,3.2575,3.2626,3.2727,3.2805,3.2887,3.2932,3.2956,3.2961,3.2975,3.2964,3.2944,3.2958,3.287,3.2959,3.2959,3.2959,3.2959,3.2958,3.2036,3.2082,3.2154,3.2227,3.228,3.2338,3.2389,3.244,3.2506,3.2592,3.2619,3.2701,3.2773,3.2886,3.2932,3.2997,3.2997,3.3015,3.302,3.3024,3.3025,3.2931,3.3012,3.3012,3.3012,3.3012,3.3012,0,3.2097,3.2145,3.2211,3.2298,3.2356,3.2372,3.2443,3.2491,3.2562,3.2626,3.2691,3.2782,3.2858,3.2925,3.3005,3.3045,3.3058,3.3064,3.3063,3.3073,3.302,3.3002,3.3052,3.3052,3.3052,3.3052,3.3052,3.3052,3.2135,3.2215,3.2249,3.2357,3.2405,3.2485,3.2524,3.2579,3.2632,3.2732,3.2795,3.2838,3.2905,3.299,3.3061,3.3079,3.3108,3.3112,3.3133,3.3081,3.3077,3.3072,3.3056,3.3117,3.3117,3.3182,3.3182,3.3183]}]]